Wind_Speed
17 16 15 14 14 14 14 15 15 15 16 17 17 18 20 20 21 22 23 24 25 26 27 28 28 28 29 29 29 28 26 25 25 24 24 25 25 26 28 30 31 32 34 36
18 16 15 14 13 13 14 14 14 14 15 16 17 18 19 19 20 21 22 24 25 26 27 28 29 29 28 28 28 27 26 25 24 23 22 22 23 23 24 26 29 30 32 34
18 16 14 13 13 13 13 13 13 14 14 15 16 16 17 18 19 20 22 23 25 27 27 28 29 29 28 28 28 27 26 25 24 23 22 21 21 22 22 24 26 28 30 32
18 15 14 13 13 12 12 12 12 13 13 14 15 15 16 17 18 20 22 24 25 27 28 29 29 29 28 28 27 27 27 25 24 23 22 21 21 21 21 22 23 25 27 30
17 15 14 13 12 11 10 11 11 12 12 13 14 14 15 16 18 20 22 24 26 28 29 29 29 29 29 28 28 27 27 26 25 23 22 22 21 20 20 19 20 21 23 25
17 15 13 12 10 9 9 10 10 10 11 11 12 13 14 16 18 20 22 25 27 28 28 29 29 29 30 29 29 28 27 26 25 24 23 22 21 19 19 17 16 17 18 21
16 14 12 10 9 8 8 9 9 9 10 10 11 12 14 16 18 20 23 24 26 27 28 29 29 30 30 30 29 29 28 27 26 25 24 23 21 19 17 15 14 14 15 17
15 13 11 9 8 7 7 7 8 9 8 9 10 12 14 16 18 20 23 24 25 27 27 28 29 30 30 30 29 29 28 28 28 27 25 24 22 20 18 15 13 12 12 13
14 13 11 9 7 6 5 6 6 7 7 8 9 11 13 15 17 20 22 24 25 26 27 28 29 29 30 30 29 29 29 29 29 28 27 25 23 22 19 17 14 12 11 10
14 12 10 8 6 5 4 4 4 5 6 7 8 11 13 15 17 19 21 23 25 26 27 28 29 29 30 30 30 30 29 29 29 28 27 26 25 23 21 19 16 13 10 8
13 12 10 8 6 5 4 3 3 4 5 7 8 10 12 14 16 18 20 22 24 25 27 28 29 29 30 30 30 30 30 30 30 29 28 27 26 25 22 20 17 14 11 8
13 12 9 8 7 5 4 2 2 3 5 7 8 10 12 14 16 18 19 21 23 24 26 27 28 29 30 30 30 30 31 31 31 30 29 28 28 27 25 22 19 15 12 9
13 11 10 8 7 6 4 2 2 3 5 6 8 10 12 14 16 17 19 20 22 23 25 27 28 29 29 30 30 31 31 31 31 31 30 29 28 27 26 24 21 18 15 11
12 11 10 8 7 6 4 2 3 3 5 6 8 10 12 13 15 17 18 20 21 22 24 26 27 28 29 29 30 31 31 31 32 32 31 30 29 28 26 25 23 21 18 15
11 11 10 8 7 6 4 3 3 4 5 6 8 9 11 13 15 16 18 19 20 22 23 25 26 27 28 29 29 30 30 31 32 32 32 31 30 29 27 26 24 22 21 18
11 10 9 8 7 6 5 4 4 4 6 7 8 10 11 12 14 15 17 18 20 21 22 24 25 27 28 28 28 29 29 30 31 32 32 32 31 30 29 27 24 23 21 20
10 10 8 7 7 6 5 5 5 5 6 7 8 9 11 12 14 15 16 18 19 20 21 22 24 25 27 27 28 28 28 29 30 31 31 32 32 32 30 28 25 24 22 21
10 9 8 7 7 7 6 6 6 6 7 8 9 10 11 12 13 14 16 17 18 19 20 21 23 24 25 26 27 27 28 28 29 30 31 31 32 33 32 30 28 25 24 23
9 8 8 7 7 7 6 6 6 7 8 8 9 10 11 12 13 14 15 16 17 18 19 20 21 23 24 25 25 26 27 28 28 29 30 31 31 32 32 31 29 27 25 25
9 8 8 8 7 7 7 7 7 8 9 9 10 11 11 12 13 14 15 16 17 18 19 20 20 22 23 24 24 25 25 26 27 28 28 29 30 30 31 30 29 28 27 26
10 10 9 9 9 10 9 9 9 10 10 11 11 11 12 13 14 14 15 16 16 17 18 19 20 21 22 22 23 24 24 25 26 27 27 27 28 28 29 29 29 28 27 26
12 12 12 12 12 12 11 11 11 12 12 12 13 13 14 14 15 15 16 16 17 17 18 19 20 20 21 22 22 23 23 24 25 25 26 26 26 27 27 27 27 27 27 26
13 13 14 14 14 13 13 13 14 14 14 14 14 15 15 16 16 17 17 17 18 18 18 19 20 20 21 21 22 22 23 23 23 24 25 25 25 25 25 25 25 25 25 25
15 15 15 16 16 15 15 16 16 16 16 16 17 17 18 18 18 19 19 19 19 19 20 20 20 21 21 21 21 21 22 22 23 23 23 24 24 23 23 23 23 23 23 23
17 17 18 18 17 18 18 18 18 18 19 19 19 20 20 20 20 21 21 21 21 21 21 21 21 21 21 21 21 21 21 22 22 22 22 22 22 22 22 21 21 21 21 21
21 20 20 20 20 20 20 20 21 21 21 21 22 22 22 22 22 23 23 23 23 23 23 23 23 22 22 22 22 22 22 22 22 22 21 21 21 21 21 20 20 19 19 19
Wind_Direction
247 254 264 273 282 292 299 305 311 316 323 328 333 336 338 340 341 341 341 341 342 341 340 340 338 336 335 333 331 328 324 319 313 307 300 294 289 281 273 266 261 258 252 248
244 251 260 271 281 291 298 305 311 319 325 331 336 339 341 341 341 342 344 345 345 345 345 345 344 342 341 339 338 335 331 326 320 314 307 300 294 288 280 272 264 260 254 248
241 248 257 268 279 289 297 305 315 323 329 334 338 342 341 342 344 346 348 349 350 350 348 348 348 347 345 344 342 341 337 332 327 321 314 307 301 295 286 278 270 263 257 250
236 244 253 265 276 286 296 307 317 324 329 335 339 343 344 346 349 351 353 355 355 354 353 353 352 352 351 349 347 346 343 340 335 329 322 315 308 302 293 284 276 269 260 252
233 241 251 262 274 285 298 309 318 325 331 338 343 348 353 354 354 356 358 359 358 357 357 357 357 356 356 354 352 350 348 346 342 337 331 325 318 311 303 294 283 272 261 252
231 238 247 258 269 282 296 309 319 327 334 343 348 355 0 359 360 1 1 0 360 360 360 359 359 360 359 358 357 355 354 352 349 346 342 337 331 323 315 303 291 280 266 254
226 233 243 252 262 278 295 310 318 330 340 348 353 1 3 3 4 5 4 2 2 2 2 3 3 2 2 1 1 1 0 359 357 355 351 348 344 339 331 319 303 290 275 262
223 230 238 244 254 273 293 308 319 332 345 354 359 2 4 5 7 8 7 6 6 6 6 7 6 6 6 5 5 4 4 3 3 1 359 357 354 351 346 337 322 306 291 273
218 226 231 235 245 264 286 303 319 333 350 0 4 5 5 6 7 8 8 8 8 8 8 9 9 9 9 8 8 8 7 6 6 6 5 3 1 359 356 350 341 326 306 285
217 223 225 229 237 253 273 294 315 334 349 2 6 6 6 7 8 8 9 9 9 10 10 11 11 11 11 12 12 12 12 11 10 10 9 8 6 4 3 359 355 345 328 302
216 218 219 224 233 238 247 278 315 341 355 2 4 4 5 6 7 7 8 8 9 10 12 13 13 12 13 14 15 15 14 13 12 13 13 12 11 10 10 7 4 360 352 328
211 212 215 225 227 225 229 259 312 337 351 359 2 4 5 6 6 7 8 8 9 10 12 13 13 14 14 15 15 15 15 15 14 14 15 15 15 15 15 14 11 7 1 351
206 208 213 219 217 215 221 252 303 331 348 356 359 0 5 6 5 5 6 7 8 9 11 12 12 13 14 15 16 15 16 16 16 16 15 16 17 17 18 18 16 14 10 3
204 206 213 214 209 210 221 253 295 325 341 350 355 358 1 3 2 3 4 5 7 8 9 11 12 12 13 15 15 16 17 17 18 18 18 18 18 18 19 19 20 21 18 15
201 202 207 209 209 214 228 253 283 312 330 340 345 350 355 358 359 1 3 4 5 7 8 10 11 11 12 14 15 16 17 18 19 20 20 20 20 19 19 19 21 21 21 19
200 200 204 210 212 221 237 256 274 297 315 329 338 343 347 350 353 357 359 1 3 5 7 9 10 11 12 13 15 16 16 17 18 19 20 20 21 20 20 20 20 20 19 18
198 200 207 213 221 230 244 260 276 291 304 317 327 335 340 346 350 352 355 358 0 2 5 7 8 10 12 14 15 16 16 16 17 18 19 20 21 21 21 22 21 21 21 19
200 204 211 220 229 239 249 262 274 286 297 308 318 327 333 338 344 348 351 354 357 359 2 4 6 8 10 12 14 15 16 16 17 18 19 20 21 21 22 22 23 23 23 21
204 210 218 226 235 244 250 259 272 283 293 302 311 319 325 332 337 342 345 348 351 354 357 0 2 5 7 9 11 12 14 14 15 16 17 19 20 21 22 23 24 24 24 23
212 219 227 234 242 250 255 263 273 281 288 297 305 312 318 324 330 335 338 342 346 349 353 355 358 360 2 4 7 9 10 11 13 14 15 16 18 20 21 22 25 26 26 26
226 231 237 243 249 255 260 267 272 277 286 293 300 306 311 316 322 328 332 335 339 342 346 349 352 354 356 359 1 4 6 8 9 11 12 13 15 17 19 20 23 25 26 27
235 239 243 249 254 259 265 268 271 277 282 287 293 299 304 310 315 319 323 327 331 334 337 341 344 347 350 352 355 358 0 2 5 7 9 10 12 14 16 18 20 22 25 27
243 246 250 254 259 265 268 271 273 276 280 284 289 294 298 303 307 311 314 318 322 325 328 332 335 338 342 345 348 351 354 356 358 1 4 6 8 10 12 15 17 20 23 25
249 252 255 258 262 266 269 272 274 276 279 282 285 290 294 298 301 305 308 311 315 318 320 323 326 329 332 336 340 343 346 349 352 354 357 0 3 5 8 11 14 16 19 22
253 256 258 261 264 267 269 272 274 276 278 280 283 286 289 293 296 299 302 305 308 311 313 316 318 321 324 327 330 334 337 340 343 346 350 353 356 359 2 4 7 10 14 17
258 260 261 263 265 267 269 271 272 274 276 279 282 284 287 290 292 295 298 300 302 304 307 309 312 314 316 319 321 325 328 330 334 337 340 343 347 350 354 357 0 3 6 10
Height
5907 5909 5910 5910 5910 5910 5908 5907 5906 5904 5902 5900 5897 5894 5890 5886 5882 5878 5873 5868 5863 5858 5852 5846 5840 5834 5828 5822 5816 5810 5805 5801 5797 5793 5790 5788 5786 5784 5784 5784 5785 5786 5789 5792
5905 5906 5907 5907 5908 5907 5906 5905 5904 5903 5900 5897 5895 5892 5888 5884 5881 5876 5872 5866 5861 5856 5850 5844 5837 5831 5825 5819 5812 5806 5801 5796 5792 5788 5784 5782 5780 5778 5776 5775 5776 5777 5779 5781
5902 5904 5905 5905 5905 5905 5904 5904 5902 5900 5898 5896 5893 5891 5887 5883 5879 5875 5870 5865 5860 5854 5848 5842 5835 5829 5822 5816 5810 5804 5798 5793 5788 5783 5780 5777 5774 5771 5769 5768 5768 5768 5769 5772
5899 5901 5902 5903 5903 5903 5902 5902 5900 5898 5896 5894 5892 5889 5886 5882 5878 5874 5869 5864 5858 5853 5846 5840 5834 5827 5821 5814 5808 5802 5795 5789 5784 5780 5776 5772 5769 5766 5763 5761 5760 5760 5761 5763
5896 5898 5900 5900 5901 5901 5901 5899 5898 5897 5895 5893 5890 5888 5886 5881 5877 5873 5868 5863 5858 5852 5845 5839 5833 5826 5819 5813 5806 5800 5793 5787 5782 5776 5772 5768 5764 5760 5757 5755 5753 5752 5753 5754
5894 5896 5897 5898 5899 5899 5899 5898 5897 5895 5894 5892 5889 5887 5885 5881 5877 5873 5868 5863 5857 5851 5845 5839 5832 5825 5819 5812 5805 5799 5792 5786 5780 5774 5769 5764 5760 5756 5752 5749 5747 5746 5746 5748
5892 5894 5895 5896 5897 5898 5897 5897 5896 5894 5892 5891 5888 5886 5884 5880 5876 5872 5867 5862 5857 5851 5845 5838 5832 5825 5818 5812 5805 5798 5792 5786 5779 5773 5768 5762 5757 5753 5748 5745 5743 5742 5741 5742
5890 5892 5894 5895 5896 5896 5896 5896 5895 5894 5892 5890 5887 5885 5884 5880 5876 5872 5867 5862 5857 5851 5845 5839 5832 5826 5819 5812 5806 5799 5792 5786 5780 5773 5767 5761 5756 5751 5747 5743 5740 5739 5737 5737
5888 5890 5892 5893 5894 5895 5894 5894 5894 5893 5891 5889 5888 5886 5883 5880 5876 5872 5868 5863 5857 5852 5846 5840 5833 5827 5820 5813 5807 5800 5794 5787 5781 5774 5768 5762 5756 5751 5746 5742 5738 5736 5734 5734
5886 5888 5890 5891 5892 5893 5893 5893 5893 5892 5890 5889 5888 5885 5883 5879 5876 5872 5868 5863 5858 5853 5847 5840 5834 5828 5821 5815 5808 5801 5795 5788 5782 5775 5769 5763 5757 5751 5746 5741 5738 5735 5733 5732
5885 5887 5889 5890 5891 5892 5892 5892 5891 5891 5890 5889 5887 5887 5883 5879 5876 5872 5868 5864 5859 5854 5848 5842 5836 5829 5823 5816 5810 5803 5797 5790 5784 5777 5771 5764 5758 5752 5747 5742 5738 5735 5732 5731
5883 5886 5887 5889 5890 5890 5891 5891 5891 5891 5890 5888 5886 5888 5882 5879 5876 5872 5868 5864 5859 5854 5849 5843 5837 5831 5825 5818 5812 5806 5799 5793 5786 5779 5773 5766 5760 5754 5749 5743 5739 5735 5733 5730
5882 5884 5886 5888 5890 5890 5889 5889 5889 5889 5889 5887 5886 5887 5882 5879 5876 5872 5869 5865 5860 5855 5850 5844 5838 5833 5827 5820 5814 5808 5801 5795 5789 5782 5775 5769 5763 5757 5751 5746 5741 5737 5733 5731
5881 5883 5885 5887 5887 5888 5888 5889 5888 5888 5888 5887 5886 5884 5882 5879 5876 5873 5869 5865 5861 5856 5851 5846 5840 5834 5828 5822 5816 5810 5804 5798 5791 5785 5778 5772 5765 5759 5754 5748 5743 5739 5735 5731
5879 5881 5883 5884 5885 5886 5887 5888 5887 5887 5887 5886 5885 5883 5881 5878 5876 5873 5869 5865 5861 5857 5852 5847 5841 5836 5830 5824 5818 5812 5806 5800 5794 5788 5781 5775 5768 5762 5756 5751 5746 5741 5737 5733
5878 5880 5881 5883 5884 5885 5886 5886 5886 5886 5885 5885 5883 5882 5880 5878 5875 5872 5869 5865 5861 5857 5853 5848 5843 5837 5832 5826 5820 5815 5809 5803 5797 5791 5785 5778 5772 5765 5759 5754 5749 5744 5739 5735
5876 5879 5880 5882 5882 5883 5885 5885 5885 5884 5884 5883 5882 5882 5879 5877 5874 5871 5868 5865 5861 5857 5853 5849 5844 5839 5833 5828 5822 5817 5811 5806 5800 5794 5788 5782 5775 5769 5763 5757 5752 5747 5742 5738
5876 5877 5879 5880 5882 5883 5885 5883 5883 5883 5882 5881 5880 5879 5878 5876 5873 5871 5868 5865 5861 5857 5854 5849 5845 5840 5835 5830 5825 5819 5814 5809 5803 5797 5791 5785 5779 5773 5767 5760 5755 5750 5745 5740
5874 5876 5877 5879 5879 5880 5881 5881 5881 5881 5880 5880 5878 5877 5876 5874 5872 5870 5867 5864 5861 5857 5853 5849 5845 5841 5836 5831 5826 5821 5816 5811 5806 5800 5795 5789 5783 5777 5771 5765 5759 5753 5748 5743
5873 5874 5876 5877 5877 5878 5880 5879 5878 5879 5878 5878 5876 5875 5874 5872 5871 5869 5866 5863 5860 5856 5853 5849 5845 5841 5837 5832 5828 5823 5818 5813 5808 5803 5797 5792 5786 5781 5775 5769 5763 5757 5752 5747
5871 5872 5873 5874 5875 5875 5876 5876 5877 5878 5877 5875 5874 5873 5871 5870 5869 5867 5864 5861 5858 5855 5852 5849 5845 5841 5837 5833 5829 5824 5820 5815 5810 5805 5800 5795 5789 5784 5779 5773 5767 5762 5757 5752
5868 5869 5870 5871 5872 5874 5873 5873 5874 5874 5872 5872 5871 5870 5869 5867 5866 5864 5861 5859 5857 5854 5851 5848 5844 5841 5837 5833 5829 5825 5821 5816 5812 5807 5802 5797 5792 5787 5782 5777 5772 5766 5761 5756
5865 5867 5867 5869 5870 5870 5869 5869 5870 5869 5869 5868 5867 5866 5865 5864 5862 5860 5858 5856 5854 5851 5849 5846 5843 5839 5836 5832 5829 5825 5821 5817 5812 5808 5804 5799 5794 5790 5785 5780 5775 5771 5766 5761
5862 5863 5864 5864 5865 5865 5865 5865 5865 5865 5865 5864 5863 5862 5861 5860 5858 5857 5855 5853 5851 5848 5846 5843 5840 5837 5834 5831 5827 5824 5820 5817 5813 5809 5805 5800 5796 5792 5787 5783 5779 5774 5770 5766
5858 5858 5859 5860 5860 5861 5861 5861 5861 5860 5860 5859 5858 5857 5856 5855 5854 5852 5850 5849 5847 5845 5842 5840 5837 5834 5832 5828 5825 5822 5819 5816 5812 5808 5805 5801 5797 5793 5789 5785 5781 5777 5773 5769
5852 5854 5855 5855 5855 5856 5856 5855 5855 5855 5854 5854 5853 5852 5851 5850 5849 5847 5845 5843 5842 5840 5838 5835 5833 5831 5828 5825 5822 5820 5817 5814 5811 5807 5804 5801 5797 5794 5790 5786 5783 5779 5775 5771